Regional Weather Roundup
Issued by NWS

Home | Current Version | Previous Version | Text Only | Print | Product List | Glossary On
Versions: 1 2 3 4 5 6 7 8 9 10 11 12 13 14 15 16 17 18 19 20 21 22 23 24 25 26 27 28 29 30 31 32 33 34 35 36 37 38 39 40 41 42 43 44 45 46 47 48 49 50
000
ASUS46 KSTO 251704
RWRCA

NORTHERN AND CENTRAL CA REGIONAL WEATHER ROUNDUP
NATIONAL WEATHER SERVICE SACRAMENTO CA
1000 AM PDT SUN JUN 25 2017

NOTE: FAIR INDICATES FEW OR NO CLOUDS BELOW 12,000 FEET WITH NO
SIGNIFICANT WEATHER AND/OR OBSTRUCTIONS TO VISIBILITY.

CAZ001-003-251800-
NORTHWEST AREA

CITY           SKY/WX    TMP DP  RH WIND       PRES   REMARKS
CRESCENT CITY  CLOUDY    57  55  93 S12       29.99R FOG
UKIAH          SUNNY     70  57  63 SE8       29.95F
$$

CAZ006-505>513-251800-
BAY AREA

CITY           SKY/WX    TMP DP  RH WIND       PRES   REMARKS
SANTA ROSA     CLOUDY    60  54  80 VRB3      30.00R
SAN RAFAEL     N/A       56  MM  MM MISG
NAPA           CLOUDY    63  55  75 W14       29.99S
CONCORD        SUNNY     67  56  67 W13       29.97S
OAKLAND CITY   N/A      MM  MM  MM MISG
OAKLAND        CLOUDY    61  55  81 W10       30.02R
SAN FRAN CITY  N/A       57  MM  94 MISG
SAN FRAN ARPT  PTSUNNY   62  53  72 W15       30.01S
LIVERMORE      SUNNY     66  55  67 W12       29.97F
HAYWARD        CLOUDY    62  52  69 NW9       30.01R
REDWOOD CITY   N/A       63  MM  75 MISG
MOFFETT ARPT   CLOUDY    64  56  75 N5        30.01S
SAN JOSE ARPT  PTSUNNY   65  57  75 VRB6      30.00S
$$
CAZ034-037-514>518-251800-
CENTRAL COAST

CITY           SKY/WX    TMP DP  RH WIND       PRES   REMARKS
WATSONVILLE    CLOUDY    60  58  92 S5        30.01R
SALINAS        CLOUDY    61  55  81 W6        30.00S
MONTEREY       CLOUDY    57  55  93 NW7       30.01S FOG
SAN LUIS OBISP SUNNY     66  56  70 NW8       29.97F
SANTA MARIA    CLOUDY    59  57  93 W5        29.99S FOG
$$
CAZ015-016-251800-
NORTHERN SACRAMENTO VALLEY

CITY           SKY/WX    TMP DP  RH WIND       PRES   REMARKS
REDDING        SUNNY     88  62  41 S8        29.89S
RED BLUFF      SUNNY     83  61  47 S9        29.90F
OROVILLE       SUNNY     79  60  52 S6        29.92S
$$
CAZ016>018-251800-
SOUTHERN SACRAMENTO VALLEY

CITY           SKY/WX    TMP DP  RH WIND       PRES   REMARKS
AUBURN         SUNNY     88  61  40 S5        29.96S
BEALE AFB      SUNNY     78  58  49 S8        29.89F
LINCOLN        FAIR      77  52  41 S12       29.90F
MARYSVILLE     SUNNY     74  56  53 S9        29.91F
SAC INTL ARPT  SUNNY     71  58  63 S9        29.91S
MATHER AIRPORT SUNNY     70  55  60 SW10      29.93R
DOWNTOWN SAC   N/A       72  MM  MM MISG
SAC EXEC ARPT  SUNNY     70  58  65 S9        29.92S
VACAVILLE      SUNNY     76  59  55 SW6       29.91S
TRAVIS AFB     SUNNY     66  55  66 SW28G35   29.90R
$$
CAZ019>021-251800-
SAN JOAQUIN VALLEY

CITY           SKY/WX    TMP DP  RH WIND       PRES   REMARKS
STOCKTON       SUNNY     78  56  46 VRB3      29.93R
MODESTO        SUNNY     79  56  45 N7        29.91S
MERCED         SUNNY     82  53  36 NW9       29.90F
LEMOORE        SUNNY     84  56  38 NW6       29.92R
FRESNO         SUNNY     86  63  45 VRB3      29.91S
HANFORD        SUNNY     85  63  47 W5        29.92R
PORTERVILLE      N/A     89  69  51 VRB5      29.93R HX  93
BAKERSFIELD    SUNNY     89  65  44 VRB5      29.92S HX  91
$$
CAZ011-012-071-251800-
NORTHERN MOUNTAINS

CITY           SKY/WX    TMP DP  RH WIND       PRES   REMARKS
YREKA          SUNNY     84  46  26 CALM      30.01F
MOUNT SHASTA   MOSUNNY   83  57  41 CALM      30.06S
ALTURAS        SUNNY     82  36  19 CALM      30.13F
$$
CAZ011-012-071-251800-
SIERRA NEVADA MTNS

CITY           SKY/WX    TMP DP  RH WIND       PRES   REMARKS
BLUE CANYON    SUNNY     77  52  41 S6        30.23S
TRUCKEE        SUNNY     73  54  49 CALM      30.27F
TAHOE VLY ARPT SUNNY     75  46  35 NE3       30.28F
MAMMOTH LAKES  FAIR      77  41  27 SE6       30.35F
$$



USA.gov is the U.S. government's official web portal to all federal, state and local government web resources and services.